Regional Weather Roundup
Issued by NWS Newport/Morehead, NC

Current Version | Previous Version | Text Only | Print | Product List | Glossary On
Versions: 1 2 3 4 5 6 7 8 9 10 11 12 13 14 15 16 17 18 19 20 21 22 23 24 25 26 27 28 29 30 31 32 33 34 35 36 37 38 39 40 41 42 43 44 45 46 47 48 49 50
564 ASUS42 KMHX 201825 RWRMHX WEATHER ROUNDUP FOR EASTERN NORTH CAROLINA NATIONAL WEATHER SERVICE NEWPORT/MOREHEAD CITY NC 200 PM EDT THU JUL 20 2017 NOTE: "FAIR" INDICATES FEW OR NO CLOUDS BELOW 12,000 FEET WITH NO SIGNIFICANT WEATHER AND/OR OBSTRUCTIONS TO VISIBILITY NCZ015>017-031-032-045>047-102-103-201900- NORTH COAST CITY SKY/WX TMP DP RH WIND PRES REMARKS EDENTON CLOUDY 93 71 48 CALM 30.05F ELIZABETH CITY MOSUNNY 88 77 69 S7 30.03F HX 100 KITTY HAWK PTCLDY 87 72 61 CALM 30.03F MANTEO MOSUNNY 85 72 63 SW10 30.05F $$ NCZ045>047-081-094-103-104-201900- CENTRAL COAST CITY SKY/WX TMP DP RH WIND PRES REMARKS FRISCO SUNNY 86 74 67 SW6 30.06F $$ NCZ095-097-098-100-101-201900- SOUTHERN COAST CITY SKY/WX TMP DP RH WIND PRES REMARKS BEAUFORT SUNNY 86 75 69 S9 30.06F CEDAR ISLAND NOT AVBL JACKSONVILLE MOSUNNY 90 74 59 E7 30.05F PINEY ISLAND PTCLDY N/A N/A N/A E7 30.05F WILMINGTON MOSUNNY 88 75 65 SE8 30.06F $$ NCZ011>013-027>030-043-044-078>080-089-090>093-098-201900- COASTAL PLAIN CITY SKY/WX TMP DP RH WIND PRES REMARKS AHOSKIE N/A 90 72 55 S5 30.04S CLINTON SUNNY 91 72 53 CALM 30.05F ELIZABETHTOWN NOT AVBL GOLDSBORO PTSUNNY 91 71 52 CALM 30.03F GREENVILLE SUNNY 93 70 46 E5 30.06F HAVELOCK PTSUNNY 89 74 60 S5 30.06F KENANSVILLE MOSUNNY 90 70 51 CALM 30.05F KINSTON MOSUNNY 91 70 49 CALM 30.05F NEW BERN MOSUNNY 88 73 61 E7 30.06F RICHLANDS MOSUNNY 90 72 55 CALM 30.06F ROCKY MOUNT SUNNY 92 68 45 CALM 30.05F WASHINGTON MOSUNNY 88 70 54 CALM 30.05F WHITEVILLE MOSUNNY 90 70 50 CALM 30.05F $$ AMZ130-135-150-152-154-156-158-170-250-252-270-ANZ085-086-088-633-658-670-201900- MARINE OBSERVATIONS STATION/POSITION TIME TEMP WIND PRES WAVE SWELL AIR SEA DIR/SP/G HT/PER HT/PER (UTC) (F) (DEG/KT/KT) (MB) (FT/S) (FT/S) CHESAPEAKE LIGHT NOT AVBL 64 E VA BEACH 1750 80 81 220/ 8/ 10 1017.7 2/15 2/15 DUCK 1800 76 63 150/ 15/ 15 1016.9 2 E DUCK 1800 73 N/A 2/15 2/15 OREGON INLET 1800 83 83 190/ 8/ 9 1017.5 13E OREGON INLT 1748 78 N/A 2/ 8 2/ 8 HATTERAS CG 1800 84 80 170/ 4/ 6 1018.0 DIAMOND BUOY 1750 82 88 210/ 2/ 4 1017.9 3/ 8 2/ 8 CAPE LOOKOUT 1800 82 140/ 6/ 6 1017.7 BEAUFORT LAB 1800 82 81 190/ 9/ 11 1017.4 30 SE NEW RVR IN 1808 81 83 190/ 6/ 8 1018.3 30 SE NEW RVR IN 1813 86 N/A 2/15 2/15 27 SE WRIGHTSVLE 1808 81 82 210/ 6/ 8 1018.3 5 SE WRIGHTSVLE 1808 82 83 170/ 8/ 10 1018.0 225 S CAPE HAT 1750 82 84 220/ 14/ 16 1019.5 3/ 8 2/ 8 41 SE CHARLESTON 1800 82 84 190/ 4/ 4 1018.8 $$

USA.gov is the U.S. government's official web portal to all federal, state and local government web resources and services.